This is the latest recevied weather packets stored in our database for station/object N8BAP. If no packets are shown the sender has not sent any weather packets the latest 10 day(s).
| Time | Temp. | Humidity | Pressure | Rain* | Wind** | Luminosity | Snow |
|---|---|---|---|---|---|---|---|
| 1778077963 | 11.11° C | 80% | 1016.7 hPa | 0 mm | - | 459 W/m² | - |
| 1778077661 | 11.11° C | 77% | 1016.8 hPa | 0 mm | - | 400 W/m² | - |
| 1778077359 | 11.11° C | 78% | 1016.7 hPa | 0 mm | - | 378 W/m² | - |
| 1778077057 | 10.56° C | 80% | 1016.7 hPa | 0 mm | - | 358 W/m² | - |
| 1778076755 | 11.11° C | 77% | 1016.8 hPa | 0 mm | - | 310 W/m² | - |
| 1778076452 | 11.11° C | 76% | 1016.9 hPa | 0 mm | - | 367 W/m² | - |
| 1778076149 | 11.11° C | 77% | 1016.5 hPa | 0 mm | - | 469 W/m² | - |
| 1778075846 | 11.67° C | 77% | 1016.1 hPa | 0 mm | - | 518 W/m² | - |
| 1778075542 | 11.11° C | 79% | 1016.5 hPa | 0 mm | - | 388 W/m² | - |
| 1778075239 | 10.56° C | 83% | 1016.2 hPa | 0 mm | - | 540 W/m² | - |
| 1778074935 | 10.56° C | 79% | 1016.4 hPa | 0 mm | - | 554 W/m² | - |
| 1778074633 | 10.56° C | 84% | 1016.3 hPa | 0 mm | - | 274 W/m² | - |
| 1778074329 | 10° C | 81% | 1016.1 hPa | 0 mm | - | 609 W/m² | - |
| 1778074026 | 10° C | 82% | 1016 hPa | 0 mm | - | 444 W/m² | - |
| 1778073723 | 10° C | 83% | 1016.2 hPa | 0 mm | - | 279 W/m² | - |
| 1778073421 | 9.44° C | 87% | 1015.9 hPa | 0 mm | - | 429 W/m² | - |
| 1778073117 | 8.89° C | 89% | 1016.3 hPa | 0 mm | - | 537 W/m² | - |
| 1778072814 | 8.33° C | 87% | 1016.2 hPa | 0 mm | - | 165 W/m² | - |
| 1778072511 | 8.33° C | 89% | 1016.2 hPa | 0 mm | - | 174 W/m² | - |
| 1778072209 | 8.33° C | 90% | 1016 hPa | 0 mm | - | 157 W/m² | - |
| 1778071907 | 8.33° C | 91% | 1015.9 hPa | 0 mm | - | 154 W/m² | - |
| 1778071604 | 8.33° C | 92% | 1015.6 hPa | 0 mm | - | 147 W/m² | - |
| 1778071302 | 7.78° C | 92% | 1015.8 hPa | 0 mm | - | 115 W/m² | - |
| 1778070999 | 7.78° C | 93% | 1015.7 hPa | 0 mm | - | 107 W/m² | - |
| 1778070698 | 7.78° C | 93% | 1015.6 hPa | 0 mm | - | 88 W/m² | - |
* Rain latest hour (hover to see other rain measurements)
** Current wind speed in m/s (hover to see current wind gust speed)